Regional Weather Roundup
Issued by NWS

Home | Current Version | Previous Version | Graphics & Text | Print | Product List | Glossary On
Versions: 1 2 3 4 5 6 7 8 9 10 11 12 13 14 15 16 17 18 19 20 21 22 23 24 25 26 27 28 29 30 31 32 33 34 35 36 37 38 39 40 41 42 43 44 45 46 47 48 49 50
000
ASUS43 KMPX 040610
RWRMN
WEATHER ROUNDUP FOR MINNESOTA
NATIONAL WEATHER SERVICE TWIN CITIES/CHANHASSEN MN
100 AM CDT FRI SEP 04 2015


NOTE: "FAIR" INDICATES FEW OR NO CLOUDS BELOW 12,000 FEET WITH NO
SIGNIFICANT WEATHER AND/OR OBSTRUCTIONS TO VISIBILITY. N/A MEANS
CURRENT SKY AND/OR WEATHER CONDITIONS ARE NOT AVAILABLE.

MNZ060>063-068>070-040700-
   Twin Cities Metro

CITY           SKY/WX    TMP DP  RH WIND       PRES   REMARKS
TWIN CITIES    CLEAR     73  69  87 E13       29.91S
6HR MIN TEMP:  73; 6HR MAX TEMP:  82;

ST PAUL        CLEAR     72  68  87 SE8       29.91F
CRYSTAL        CLEAR     75  69  81 E9        29.89S
BLAINE         CLEAR     73  72  94 E7        29.91S
LAKEVILLE      CLEAR     68  68 100 CALM      29.91S FOG
EDEN PRAIRIE   CLEAR     75  71  87 E8        29.89S
6HR MIN TEMP:  75; 6HR MAX TEMP:  82;

SOUTH ST PAUL  CLEAR     73  67  83 SE6       29.92R
LAKE ELMO      FAIR      72  68  88 E6        29.93F
$$
MNZ001>005-007-008-013>017-022>024-027-028-040700-
   Northwest Minnesota

CITY           SKY/WX    TMP DP  RH WIND       PRES   REMARKS
BEMIDJI        MOCLDY    68  66  93 SE10      29.90S
HALLOCK        CLOUDY    79  72  78 S14       29.77R
ROSEAU         CLOUDY    70  64  83 S15       29.82R
WARROAD        MOCLDY    73  68  83 S17G24    29.83S
THIEF RVR FALL CLOUDY    73  70  88 SE9       29.83S
CROOKSTON      CLOUDY    75  72  88 SE12      29.80S
FOSSTON        MOCLDY    72  66  83 SE8       29.86R
DETROIT LAKES  CLOUDY    73  70  88 SE13      29.87S
MOORHEAD       MOCLDY    75  73  94 SE9       29.80S
PARK RAPIDS    CLOUDY    73  67  81 SE12      29.90S
MAHNOMEN       FAIR      73  69  87 SE12      29.84S
$$
MNZ006-009>011-018-025>026-040700-
   North Central Minnesota

CITY           SKY/WX    TMP DP  RH WIND       PRES   REMARKS
BAUDETTE       PTCLDY    67  62  84 SE9       29.88S
FLAG ISLAND    CLEAR     72  64  78 S22       29.84S
INTL FALLS     CLEAR     61  55  81 SE5       29.94R
6HR MIN TEMP:  60; 6HR MAX TEMP:  78;

WASKISH        MOCLDY    70  64  83 E3        29.90R
BIG FORK       CLEAR     63  55  77 SE6       29.95R
LONGVILLE      PTCLDY    63  61  94 E3        29.93S
GRAND RAPIDS     N/A     61  54  77 SE6       29.96R
CRANE LAKE     CLEAR     54  52  94 CALM      30.00R
ORR            CLEAR     59  48  67 SE5       29.95S
COOK           CLEAR     57  52  82 CALM      29.98S
WALKER         MOCLDY    68  65  90 SE7       29.91S
$$
MNZ012-019>021-037-040700-
   Northeast Minnesota

CITY           SKY/WX    TMP DP  RH WIND       PRES   REMARKS
DULUTH         CLEAR     58  53  84 E9        29.99S
6HR MIN TEMP:  57; 6HR MAX TEMP:  65;

ELY            CLEAR     57  52  82 CALM      30.01S
HIBBING        CLEAR     54  50  86 CALM      29.98S
EVELETH        CLEAR     54  50  87 NE3       30.00S
DULUTH HARBOR  CLEAR     61  57  88 NE10      29.99F
TWO HARBORS    CLEAR     59  54  82 N6        29.99S
SILVER BAY     CLEAR     57  54  88 N3        30.00R
GRAND MARAIS     N/A     62  56  80 NE5       30.01S
G MARAIS ARPRT CLEAR     57  52  82 NE3       30.07R
$$
MNZ029>031-032-039>041-046>048-054>057-064-040700-
   West Central Minnesota

CITY           SKY/WX    TMP DP  RH WIND       PRES   REMARKS
FERGUS FALLS   MOCLDY    75  72  88 SE12G17   29.81S
WHEATON        MOCLDY    73  72  94 SE10      29.81F
MORRIS         MOCLDY    75  73  94 SE10      29.82S FOG
ALEXANDRIA     PTCLDY    73  71  93 SE12      29.88S
ELBOW LAKE     FAIR      74  72  93 SE12G18   29.83F
WADENA         CLOUDY    73  68  83 SE9       29.88S
GLENWOOD       PTCLDY    72  70  94 E9        29.88S FOG
APPLETON       MOCLDY    77  73  88 SE9       29.81S FOG
BENSON         PTCLDY    75  72  88 SE8       29.83S
ORTONVILLE     MOCLDY    75  73  94 SE8       29.81R
MADISON        MOCLDY    75  72  88 SE7       29.81S
WILLMAR        FAIR      75  73  94 SE12      29.86F
$$
MNZ033>034-036-042>043-049>051-058-059-040700-
   Central Minnesota

CITY           SKY/WX    TMP DP  RH WIND       PRES   REMARKS
ST CLOUD       CLEAR     71  68  90 E7        29.89F
6HR MIN TEMP:  71; 6HR MAX TEMP:  80;

SAUK CENTRE    FAIR      72  70  93 E6        29.88F
PAYNESVILLE    CLEAR     73  71  95 E7        29.88F
AITKIN         CLEAR     61  55  82 CALM      29.94S
PINE RIVER     PTCLDY    64  64 100 E7        29.95F
BRAINERD       MOCLDY    67  65  93 VRB3      29.92S
STAPLES        MOCLDY    72  66  83 E6        29.89F
LONG PRAIRIE   FAIR      70  68  94 E8        29.89F
LITTLE FALLS   CLEAR     72  64  78 E7        29.90S
LITCHFIELD     CLEAR     73  73 100 SE9       29.88S
BUFFALO        CLEAR     73  69  87 E5        29.89F
MAPLE LAKE     CLEAR     73  71  94 E5        29.90S
$$
MNZ037-044-045-052-053-040700-
   East Central Minnesota

CITY           SKY/WX    TMP DP  RH WIND       PRES   REMARKS
PRINCETON      CLEAR     72  68  88 E6        29.91S
MORA           PTCLDY    64  64 100 E3        29.95F
CAMBRIDGE      PTCLDY    73  63  68 E6        29.91S
RUSH CITY      PTCLDY    68  65  90 E5        29.94S
MOOSE LAKE     CLEAR     55  54  94 NE3       29.96S
HINCKLEY       MOCLDY    64  64 100 CALM      29.95S
CLOQUET        FAIR      55  52  88 E3        29.99R
MCGREGOR       CLEAR     59  55  88 E3        29.96R
$$
MNZ071>073-080-081-089-090-097-098-040700-
   Southwest Minnesota

CITY           SKY/WX    TMP DP  RH WIND       PRES   REMARKS
MONTEVIDEO     PTCLDY    75  75 100 S7        29.84S
GRANITE FALLS  CLEAR     75  73  93 E9        29.84S
CANBY          PTCLDY    72  70  94 SE6       29.83S
MARSHALL       PTCLDY    73  70  88 SE9       29.84S
REDWOOD FALLS  CLEAR     76  73  91 SE10      29.84F
OLIVIA         CLEAR     72  70  94 SE9       29.84F
PIPESTONE      PTCLDY    75  72  88 SE10      29.84S
WINDOM         PTCLDY    75  72  88 SE7       29.87S
WORTHINGTON    PTCLDY    73  68  83 SE8       29.86S
JACKSON        PTCLDY    73  72  94 SE7       29.88S
TRACY          PTCLDY    75  73  95 SE7       29.85S
SLAYTON        PTCLDY    72  72 100 CALM      29.86F
$$
MNZ065>067-074>077-082>085-091>093-040700-
   South Central Minnesota

CITY           SKY/WX    TMP DP  RH WIND       PRES   REMARKS
MANKATO        CLEAR     75  73  94 SE8       29.89R
NEW ULM        CLEAR     75  73  94 SE7       29.87S
ST JAMES       CLEAR     73  73 100 SE6       29.88S
FAIRMONT       PTCLDY    75  66  73 SE8       29.88S
GLENCOE        CLEAR     75  74  96 E8        29.87F
FARIBAULT      CLEAR     75  73  94 E7        29.91S
OWATONNA       CLEAR     75  72  88 SE7       29.91S
WASECA         CLEAR     72  70  94 SE6       29.91S
ALBERT LEA     CLEAR     75  72  88 SE6       29.92R
$$
MNZ078>079-086>088-094>096-040700-
   Southeast Minnesota

CITY           SKY/WX    TMP DP  RH WIND       PRES   REMARKS
ROCHESTER      CLEAR     74  72  93 SE7       29.95R FOG
6HR MIN TEMP:  74; 6HR MAX TEMP:  83;

RED WING       CLEAR     73  68  83 E7        29.92S
STANTON        CLEAR     75  70  84 E7        29.90S
DODGE CENTER   CLEAR     73  72  94 SE7       29.94R FOG
WINONA         CLEAR     73  68  83 SE8       29.94S
AUSTIN         PTCLDY    73  72  94 CALM      29.93R
PRESTON        CLEAR     74  72  92 E6        29.95S
$$
ABBREVIATIONS USED IN REMARKS
   TC - TEMPERATURES IN CELSIUS
  WCI - WIND CHILL INDEX
   HX - HEAT INDEX
  VSB - VISIBILITY
$$



USA.gov is the U.S. government's official web portal to all federal, state and local government web resources and services.